[[{"header":{"parameterUnit":"m.s-1","parameterCategory":1,"la1":30.2991,"la2":30.254,"lo1":-89.0895,"lo2":-89.0444,"dy":0.0017,"dx":0.0017,"nx":28,"ny":28,"refTime":"2025-07-20T03:00:00:Z","depth":0,"parameterNumber":2,"parameterNumberName":"U-component_of_WINDS"},"data":[0,0,0,0,0,0,0,0,0,0,0,0,0,0,0,0,0,0,0,0,0,0,0,0,0,0,0,0,0,0,0,0,0,0,0,0,0,0,0,0,0,0,0,0,0,0,0,0,0,0,0,0,0,0,0,0,0,0,3.7867,3.7869,0,3.8058,3.806,3.8062,3.8053,3.805,3.8047,3.8044,3.8243,3.825,3.8258,0,0,0,0,0,0,0,0,0,0,0,0,0,3.7494,3.7501,3.7867,3.7869,3.7871,3.8057,3.806,3.8063,3.8053,3.805,3.8046,3.8043,3.824,3.8249,3.8259,0,0,0,0,0,0,0,0,0,0,0,0,0,3.7668,3.7503,3.7866,3.7889,3.7893,3.8057,3.806,3.8063,3.8054,3.805,3.8045,3.8042,3.8237,3.8248,3.826,3.8415,0,0,3.8296,3.8301,0,0,0,0,0,0,0,0,3.7658,3.7681,3.7883,3.7888,3.7892,3.8027,3.8001,3.8181,3.8055,3.7993,3.8044,3.804,3.8174,3.8191,3.8236,3.8424,3.8433,3.8297,3.8304,3.8309,3.8312,0,0,0,0,0,0,0,3.7646,3.7673,3.7942,3.7886,3.7892,3.789,3.791,3.8035,3.8104,3.7998,3.7998,3.802,3.8176,3.8225,3.8241,3.8435,3.8297,3.8307,3.8314,3.8319,3.8758,3.8762,0,0,0,0,0,0,3.7629,3.7663,3.7936,3.7948,3.7762,3.79,3.7922,3.7988,3.8103,3.8116,3.8023,3.8019,3.8207,3.8227,3.8247,3.8434,3.8309,3.832,3.8327,3.8753,3.8759,3.8764,0,0,0,0,0,0,3.7621,3.7653,3.7929,3.7806,3.784,3.7911,3.7984,3.7994,3.8042,3.8122,3.8135,3.806,3.8204,3.8231,3.8373,3.8441,3.8325,3.8336,3.8748,3.8755,3.8761,3.8811,0,0,0,0,0,0,3.761,3.765,3.771,3.7807,3.7847,3.805,3.7989,3.8001,3.8062,3.8058,3.816,3.8173,3.8203,3.8355,3.8384,3.8455,3.8345,3.8742,3.8751,3.8759,3.8803,3.8818,3.8831,0,0,0,0,0,3.7597,3.7717,3.7713,3.7746,3.7923,3.8054,3.8077,3.8108,3.8068,3.8128,3.8179,3.817,3.8429,3.837,3.8402,3.8478,3.8738,3.8749,3.8759,3.8797,3.8815,3.8831,0,0,0,0,0,0,3.7627,3.773,3.7727,3.7882,3.7959,3.8052,3.8129,3.8127,3.8219,3.8211,3.8247,3.827,3.8411,3.8459,3.8391,3.8633,3.8578,3.8596,3.8596,3.8615,3.8628,3.8613,3.8355,0,0,0,0,0,3.7652,3.7749,3.7834,3.7963,3.8002,3.8059,3.8118,3.8135,3.8217,3.8249,3.8311,3.8391,3.8491,3.8555,3.8652,3.881,3.8831,3.8878,3.8892,3.8904,3.8918,3.9003,3.9025,3.8798,3.8798,3.8798,0,0,3.7704,3.7772,3.7832,3.7971,3.8033,3.8133,3.8087,3.8195,3.827,3.8266,3.8403,3.8451,3.8543,3.8693,3.8762,3.8737,3.8985,3.8917,3.8925,3.8934,3.9016,3.9038,3.9057,3.8805,3.8804,3.8803,0,0,3.785,3.7912,3.8025,3.8087,3.8181,3.8218,3.8245,3.8338,3.837,3.8507,3.8506,3.8595,3.8767,3.8831,3.8887,3.9055,3.9049,3.9086,3.9159,3.9242,3.926,3.9276,3.9334,3.9354,3.91,3.91,3.91,0,3.7903,3.8053,3.8083,3.8192,3.8253,3.8253,3.8367,3.8427,3.8547,3.8589,3.8559,3.8772,3.8834,3.8999,3.9039,3.9085,3.9116,3.9074,3.9254,3.9271,3.9286,3.9342,3.9364,3.9104,3.9103,3.9103,3.9103,0,3.8113,3.8217,3.8297,3.8412,3.8482,3.8593,3.864,3.8707,3.8718,3.8758,3.8897,3.8971,3.9081,3.9122,3.9134,3.9288,3.9269,3.9247,3.9192,3.9311,3.9364,3.9386,3.9109,3.9108,3.9107,3.9106,0,0,3.8284,3.8412,3.8441,3.8492,3.8595,3.8676,3.8787,3.8893,3.8949,3.9033,3.9125,3.9269,3.9248,3.9311,3.9331,3.9404,3.953,3.9373,3.9375,3.9398,3.9701,3.9716,3.974,3.9527,3.9532,3.9535,3.9693,0,3.8439,3.8634,3.8663,3.8835,3.8931,3.8932,3.9028,3.9101,3.9141,3.9228,3.9273,3.9373,3.934,3.9377,3.9449,3.9499,3.9591,3.9489,3.9613,3.9617,3.9588,3.9768,3.9785,3.993,3.9714,3.9718,3.972,0,3.8646,3.8732,3.8913,3.9,3.9042,3.9128,3.9226,3.931,3.9393,3.9417,3.9486,3.9496,3.9611,3.9552,3.9709,3.9639,3.9692,3.9724,3.973,3.9742,3.9675,3.9783,3.9978,3.9999,3.9754,3.9751,3.9749,0,3.8749,3.8912,3.904,3.9084,3.919,3.925,3.9297,3.9376,3.9437,3.9524,3.9564,3.9663,3.9717,3.9794,3.9831,3.9785,3.9985,3.993,4.0007,4.0006,4.0048,4.0045,4.0252,4.0086,4.0085,4.0085,4.0084,0,3.8918,3.9029,3.9087,3.9166,3.9289,3.9322,3.9443,3.9489,3.9558,3.9646,3.9654,3.9736,3.978,3.9869,3.9899,4.0023,4.0048,4.007,4.0077,4.0069,4.0066,4.0103,4.0093,4.0091,4.0089,4.0088,4.0087,0,3.9055,3.9099,3.9239,3.9327,3.9351,3.9438,3.9513,3.959,3.9629,3.9739,3.9767,3.9829,3.9933,3.9978,4.0107,4.0127,4.0269,4.0269,4.024,4.0242,4.0316,4.0307,4.0553,4.0586,4.0399,4.0401,4.0402,0,3.9159,3.9243,3.934,3.9398,3.9446,3.9541,3.9603,3.9639,3.9703,3.9802,3.9866,3.9971,4.0056,4.0223,4.0279,4.0377,4.0378,4.0458,4.0393,4.0382,4.0377,4.0371,4.0378,4.0469,4.0471,4.0472,4.0474,0,3.9338,3.9355,3.9444,3.954,3.9613,3.9691,3.9766,3.9814,3.9861,3.9933,4.0039,4.0105,4.0235,4.0338,4.044,4.0488,4.0489,4.0493,4.0516,4.0508,4.0487,4.0497,4.027,4.0487,4.0486,4.0485,4.0484,4.0484,3.9461,3.9534,3.9613,3.9711,3.9771,3.9841,3.9916,3.9964,4.0053,4.016,4.0177,4.0289,4.0369,4.0504,4.0557,4.0646,4.0626,4.0659,4.0668,4.0675,4.0678,4.0474,4.0665,4.0665,4.0664,4.0664,4.0664,0,3.9638,3.9688,3.9778,3.9882,3.9959,3.9952,4.0035,4.0099,4.0198,4.0272,4.0354,4.0475,4.0575,4.0638,4.0739,4.0797,4.08,4.0822,4.0817,4.0828,4.0691,4.0661,4.0818,4.0818,4.0818,4.0818,4.0818,4.0818,3.974,3.9863,3.9889,4.0043,4.0093,4.0202,4.025,4.0314,4.0372,4.0506,4.0588,4.0629,4.0698,4.0803,4.0894,4.091,4.0945,4.0969,4.0983,4.0854,4.0838,4.0823,4.0794,4.0977,4.0977,4.1112,4.1114,4.1115]},{"header":{"parameterUnit":"m.s-1","parameterCategory":1,"la1":30.2991,"la2":30.254,"lo1":-89.0895,"lo2":-89.0444,"dy":0.0017,"dx":0.0017,"nx":28,"ny":28,"refTime":"2025-07-20T03:00:00:Z","depth":0,"parameterNumber":3,"parameterNumberName":"V-component_of_WINDS"},"data":[0,0,0,0,0,0,0,0,0,0,0,0,0,0,0,0,0,0,0,0,0,0,0,0,0,0,0,0,0,0,0,0,0,0,0,0,0,0,0,0,0,0,0,0,0,0,0,0,0,0,0,0,0,0,0,0,0,0,0.289,0.289,0,0.2895,0.2895,0.2895,0.2881,0.288,0.288,0.2879,0.2885,0.2886,0.2886,0,0,0,0,0,0,0,0,0,0,0,0,0,0.287,0.2871,0.289,0.289,0.289,0.2895,0.2895,0.2895,0.2881,0.288,0.288,0.2879,0.2885,0.2885,0.2886,0,0,0,0,0,0,0,0,0,0,0,0,0,0.2877,0.2871,0.289,0.2884,0.2883,0.2894,0.2895,0.2895,0.2881,0.288,0.2879,0.2879,0.2885,0.2885,0.2886,0.2904,0,0,0.2889,0.2889,0,0,0,0,0,0,0,0,0.2877,0.2878,0.2885,0.2884,0.2884,0.2886,0.289,0.2898,0.2881,0.2882,0.2879,0.2879,0.2886,0.2887,0.2889,0.2905,0.2905,0.2889,0.2889,0.289,0.289,0,0,0,0,0,0,0,0.2876,0.2878,0.2892,0.2885,0.2884,0.2881,0.2881,0.2891,0.2888,0.2882,0.2881,0.2881,0.2886,0.2888,0.2889,0.2905,0.2889,0.289,0.289,0.289,0.2934,0.2935,0,0,0,0,0,0,0.2877,0.2877,0.2892,0.2892,0.2879,0.2882,0.2882,0.2886,0.2887,0.2887,0.2882,0.2881,0.2887,0.2888,0.2889,0.291,0.289,0.289,0.2891,0.2934,0.2935,0.2935,0,0,0,0,0,0,0.2876,0.2878,0.2892,0.2884,0.2886,0.2883,0.2887,0.2887,0.2889,0.2887,0.2887,0.2885,0.2887,0.2888,0.29,0.291,0.2891,0.2892,0.2933,0.2934,0.2935,0.2952,0,0,0,0,0,0,0.2876,0.2878,0.2885,0.2885,0.2886,0.2903,0.2888,0.2887,0.289,0.2889,0.289,0.289,0.2886,0.2899,0.2901,0.2911,0.2892,0.2932,0.2933,0.2935,0.2951,0.2954,0.2956,0,0,0,0,0,0.2875,0.289,0.2885,0.2887,0.2895,0.2903,0.2904,0.2899,0.2891,0.2898,0.2897,0.289,0.2908,0.2901,0.2903,0.2913,0.2932,0.2933,0.2935,0.2949,0.2953,0.2956,0,0,0,0,0,0,0.2892,0.289,0.2885,0.29,0.2902,0.2901,0.291,0.2903,0.2908,0.2906,0.29,0.2901,0.2914,0.2915,0.2906,0.293,0.2919,0.2921,0.2929,0.2933,0.2935,0.2935,0.2893,0,0,0,0,0,0.2897,0.2904,0.2902,0.2916,0.2917,0.2913,0.2916,0.2912,0.2914,0.2915,0.2915,0.2917,0.2924,0.2928,0.2934,0.295,0.295,0.2958,0.2961,0.2963,0.2965,0.2973,0.2977,0.294,0.294,0.294,0,0,0.2909,0.2908,0.2913,0.2919,0.292,0.2927,0.2914,0.2922,0.2928,0.2917,0.2928,0.2928,0.293,0.2945,0.2951,0.2945,0.2975,0.2965,0.2967,0.2968,0.2975,0.2979,0.2982,0.2941,0.2941,0.2941,0,0,0.2934,0.2934,0.2945,0.2946,0.2947,0.2944,0.2947,0.2947,0.2946,0.2957,0.2949,0.2955,0.2966,0.2968,0.297,0.2994,0.2988,0.2996,0.3011,0.3019,0.3022,0.3024,0.3033,0.3036,0.2998,0.2998,0.2998,0,0.2948,0.2958,0.2952,0.296,0.2963,0.2952,0.2964,0.2965,0.2968,0.2971,0.2964,0.2977,0.2978,0.2992,0.2998,0.3,0.3003,0.2997,0.3022,0.3024,0.3027,0.3035,0.3038,0.2999,0.2999,0.2999,0.2999,0,0.2976,0.2983,0.2992,0.2995,0.2998,0.3008,0.3003,0.3007,0.3002,0.3,0.3011,0.3012,0.3017,0.302,0.3016,0.3034,0.303,0.3023,0.3012,0.3031,0.3039,0.3042,0.3001,0.3,0.3,0.3,0,0,0.3013,0.301,0.3014,0.3015,0.3015,0.302,0.3029,0.3034,0.3038,0.304,0.3048,0.3057,0.305,0.3052,0.3048,0.3055,0.3074,0.3047,0.3047,0.3052,0.3093,0.3099,0.3103,0.3069,0.307,0.307,0.3093,0,0.3037,0.3052,0.3046,0.3062,0.3068,0.3058,0.3066,0.3067,0.3064,0.307,0.3067,0.3074,0.3064,0.3065,0.3072,0.307,0.3082,0.3068,0.3076,0.3077,0.3077,0.3106,0.3113,0.3134,0.3096,0.3096,0.3097,0,0.3068,0.307,0.3087,0.3085,0.3087,0.3095,0.3098,0.3103,0.3104,0.3101,0.3104,0.3097,0.3106,0.3094,0.3106,0.3097,0.31,0.3099,0.31,0.3101,0.3088,0.3108,0.3141,0.3144,0.3101,0.3101,0.31,0,0.3093,0.3101,0.3111,0.3112,0.311,0.3116,0.3115,0.3115,0.3118,0.3121,0.3122,0.3126,0.3129,0.3132,0.3127,0.3119,0.3139,0.3127,0.3138,0.3138,0.3143,0.3143,0.3177,0.3145,0.3145,0.3145,0.3144,0,0.3121,0.3131,0.3122,0.3129,0.314,0.3133,0.3144,0.3143,0.3142,0.3148,0.3139,0.3145,0.3138,0.3143,0.3139,0.315,0.3151,0.3149,0.3148,0.315,0.3151,0.3153,0.3151,0.3145,0.3145,0.3145,0.3145,0,0.3151,0.3146,0.3157,0.3153,0.3153,0.3161,0.3159,0.3165,0.3161,0.3169,0.317,0.3165,0.3171,0.3166,0.3172,0.3169,0.3183,0.3179,0.3182,0.3181,0.3193,0.3192,0.3229,0.3234,0.3198,0.3199,0.3199,0,0.317,0.3177,0.3175,0.3178,0.3178,0.3183,0.3185,0.3178,0.3181,0.3182,0.3187,0.3192,0.3195,0.3205,0.3202,0.3206,0.3203,0.3216,0.3203,0.3205,0.3203,0.3203,0.3203,0.3218,0.3219,0.3219,0.3219,0,0.3203,0.32,0.3203,0.3206,0.3209,0.3211,0.3212,0.3215,0.3207,0.3211,0.3216,0.3219,0.3224,0.3229,0.3231,0.3231,0.3224,0.3223,0.3226,0.3228,0.323,0.3229,0.3189,0.3222,0.3222,0.3222,0.3222,0.3222,0.3228,0.3234,0.3233,0.3237,0.3237,0.3238,0.3243,0.324,0.3244,0.3247,0.3243,0.3249,0.3249,0.3252,0.3252,0.3257,0.3251,0.3255,0.3257,0.3258,0.3259,0.3228,0.3257,0.3257,0.3257,0.3257,0.3257,0,0.3261,0.3259,0.3263,0.3265,0.3268,0.326,0.3261,0.3264,0.327,0.327,0.3273,0.3278,0.3283,0.3279,0.3283,0.3287,0.3284,0.3289,0.3288,0.3288,0.3264,0.3261,0.3291,0.3291,0.3291,0.3291,0.3291,0.3291,0.3279,0.3288,0.3285,0.3294,0.3292,0.3298,0.3299,0.33,0.3299,0.3306,0.3309,0.3307,0.3305,0.3309,0.3312,0.3311,0.3313,0.3318,0.3316,0.3294,0.329,0.3287,0.3284,0.3319,0.3319,0.334,0.334,0.3341]}]]